Mitchell, SD

4:56 PM CDT on April 21, 2018 (GMT -0500)
Mitchell Municipal

Weather History for KMHE - July, 2014

Change the Weather History Date:

Saturday, July 19, 2014

  Actual Average Record
Temperature  
Mean Temperature 75 °F 75 °F  
Max Temperature 84 °F 87 °F 109 °F (1936)
Min Temperature 65 °F 63 °F 48 °F (1911)
Degree Days  
Heating Degree Days 0 0  
Month to date heating degree days 9 0  
Since 1 June heating degree days 35 35  
Since 1 July heating degree days 9 0  
Cooling Degree Days 10 10  
Month to date cooling degree days 125 188  
Year to date cooling degree days 361 398  
Since 1 June cooling degree days 283 358  
Growing Degree Days 23 (Base 50)    
Moisture  
Dew Point 66 °F    
Average Humidity 74    
Maximum Humidity 90    
Minimum Humidity 58    
Precipitation  
Precipitation 0.00 in 0.08 in 1.50 in (1907)
Month to date precipitation 0.48 1.99  
Year to date precipitation 9.40 12.85  
Snow  
Snow 0.00 in - 0.00 in ()
Month to date snowfall 0.0  
Since 1 June snowfall 0.0  
Since 1 July snowfall 0.0  
Snow Depth 0.00 in    
Sea Level Pressure  
Sea Level Pressure 29.82 in    
Wind  
Wind Speed 9 mph (SSE)    
Max Wind Speed 17 mph    
Max Gust Speed 24 mph    
Visibility 10 miles    
Events      
T = Trace of Precipitation, MM = Missing Value Source: NWS Daily Summary

Daily Weather History Graph

Daily Weather History Graph

Search for Another Location

Airport or City:

Astronomy

Jul. 19, 2014 Rise Set
Actual Time 6:07 AM CDT 9:08 PM CDT
Civil Twilight 5:33 AM CDT 9:42 PM CDT
Nautical Twilight 4:49 AM CDT 10:26 PM CDT
Astronomical Twilight 3:57 AM CDT 11:18 PM CDT
Moon 12:49 AM CDT (7/19) 2:46 PM CDT (7/19)
Length of Visible Light 16h 09m
Length of Day
15h 00m
Last Quarter, 43% of the Moon is Illuminated
Jul 19
Last Quarter
Jul 26
New
Aug 3
First Quarter
Aug 10
Full
Aug 17
Last Quarter

Hourly Weather History & Observations

Time (CDT) Temp. Heat Index Dew Point Humidity Pressure Visibility Wind Dir Wind Speed Gust Speed Precip Events Conditions
12:53 AM 69.1 °F - 62.1 °F 78% 29.83 in 10.0 mi South 15.0 mph - N/A   Clear
1:53 AM 68.0 °F - 62.1 °F 81% 29.81 in 10.0 mi South 13.8 mph - N/A   Clear
2:53 AM 66.9 °F - 62.1 °F 84% 29.82 in 10.0 mi South 8.1 mph - N/A   Clear
3:53 AM 64.9 °F - 61.0 °F 87% 29.84 in 10.0 mi South 6.9 mph - N/A   Mostly Cloudy
4:53 AM 66.9 °F - 62.1 °F 84% 29.83 in 10.0 mi South 8.1 mph - N/A   Overcast
5:53 AM 66.0 °F - 62.1 °F 87% 29.83 in 10.0 mi South 8.1 mph - N/A   Clear
6:53 AM 66.0 °F - 62.1 °F 87% 29.83 in 10.0 mi South 6.9 mph - N/A   Clear
7:53 AM 66.9 °F - 63.0 °F 87% 29.84 in 10.0 mi SE 8.1 mph - N/A   Clear
8:53 AM 70.0 °F - 64.0 °F 81% 29.86 in 10.0 mi SSW 5.8 mph - N/A   Clear
9:53 AM 72.0 °F - 64.9 °F 78% 29.85 in 10.0 mi SE 4.6 mph - N/A   Clear
10:53 AM 75.9 °F - 66.0 °F 71% 29.85 in 10.0 mi SW 3.5 mph - N/A   Clear
11:53 AM 78.1 °F - 66.0 °F 66% 29.84 in 10.0 mi ESE 4.6 mph - N/A   Clear
12:53 PM 79.0 °F - 66.9 °F 66% 29.83 in 10.0 mi East 4.6 mph - N/A   Clear
1:53 PM 81.0 °F 84.1 °F 69.1 °F 67% 29.83 in 10.0 mi SSE 10.4 mph - N/A   Partly Cloudy
2:53 PM 80.1 °F 82.7 °F 68.0 °F 67% 29.83 in 10.0 mi SE 9.2 mph - N/A   Clear
3:53 PM 82.0 °F 85.5 °F 69.1 °F 65% 29.82 in 10.0 mi SE 11.5 mph - N/A   Clear
4:53 PM 82.9 °F 86.5 °F 69.1 °F 63% 29.81 in 10.0 mi SSE 10.4 mph - N/A   Clear
5:53 PM 82.9 °F 87.0 °F 70.0 °F 65% 29.81 in 10.0 mi SSE 10.4 mph - N/A   Clear
6:53 PM 82.9 °F 85.4 °F 66.9 °F 58% 29.81 in 10.0 mi South 8.1 mph - N/A   Clear
7:53 PM 82.0 °F 84.9 °F 68.0 °F 62% 29.80 in 10.0 mi SSE 11.5 mph - N/A   Clear
8:53 PM 80.1 °F 82.9 °F 69.1 °F 69% 29.79 in 10.0 mi SSE 10.4 mph - N/A   Clear
10:53 PM 73.0 °F - 68.0 °F 84% 29.80 in 10.0 mi SSE 11.5 mph - N/A   Clear
11:53 PM 72.0 °F - 68.0 °F 87% 29.79 in 10.0 mi SSE 12.7 mph - N/A   Clear